EW4337 Weather Reports


time (UTC)temp
F
wind
direction
speed
knots
gust
knots
rain 1hr
in
rain 24hr
in
rain mn
in
humidity
%
barometer
mb
20260502213704 57 50 0.9 2.6 0.00 0.00 0.00 82 1013.2
20260502213204 57 10 0.9 2.6 0.00 0.00 0.00 81 1013.1
20260502212704 57 40 1.7 2.6 0.00 0.00 0.00 81 1013.2
20260502211204 58 348 1.7 2.6 0.00 0.00 0.00 78 1013.2
20260502210704 58 346 1.7 2.6 0.00 0.00 0.00 77 1013.2
20260502210204 58 335 1.7 2.6 0.00 0.00 0.00 75 1013.2
20260502205704 58 19 0.9 2.6 0.00 0.00 0.00 74 1013.2
20260502205204 58 5 0.9 2.6 0.00 0.00 0.00 73 1013.2
20260502204704 59 332 0.9 2.6 0.00 0.00 0.00 73 1013.2
20260502204204 59 317 0.9 2.6 0.00 0.00 0.00 72 1013.2
20260502203204 60 317 0.9 2.6 0.00 0.00 0.00 71 1013.3
20260502202204 60 324 0.9 1.7 0.00 0.00 0.00 71 1013.5
20260502201704 60 324 0.9 1.7 0.00 0.00 0.00 71 1013.5
20260502201205 61 331 0.9 1.7 0.00 0.00 0.00 71 1013.6
20260502200704 61 319 0.9 1.7 0.00 0.00 0.00 70 1013.6
20260502195702 61 292 0.9 2.6 0.00 0.00 0.00 70 1013.6
20260502195202 61 293 1.7 4.3 0.00 0.00 0.00 70 1013.6
20260502194703 61 293 0.9 2.6 0.00 0.00 0.00 69 1013.6
20260502194202 62 289 1.7 2.6 0.00 0.00 0.00 69 1013.6
20260502193702 62 292 1.7 2.6 0.00 0.00 0.00 69 1013.5
20260502193203 62 307 0.9 2.6 0.00 0.00 0.00 68 1013.6
20260502192702 62 296 0.9 2.6 0.00 0.00 0.00 68 1013.6
20260502191703 63 293 2.6 5.2 0.00 0.00 0.00 69 1013.5
20260502191202 63 305 1.7 2.6 0.00 0.00 0.00 71 1013.5
20260502190702 64 295 2.6 4.3 0.00 0.00 0.00 72 1013.5
20260502190202 64 290 1.7 5.2 0.00 0.00 0.00 72 1013.5
20260502185704 64 302 1.7 2.6 0.00 0.00 0.00 72 1013.4
20260502185203 65 296 1.7 2.6 0.00 0.00 0.00 73 1013.5
20260502184702 65 328 1.7 2.6 0.00 0.00 0.00 72 1013.5
20260502184203 65 303 2.6 6.1 0.00 0.00 0.00 72 1013.5
20260502183702 66 295 2.6 5.2 0.00 0.00 0.00 72 1013.5
20260502183203 66 315 1.7 2.6 0.00 0.00 0.00 71 1013.5
20260502182703 67 281 2.6 6.1 0.00 0.00 0.00 70 1013.4
20260502182203 67 290 3.5 6.1 0.00 0.00 0.00 69 1013.4
20260502181703 67 298 1.7 6.1 0.00 0.00 0.00 69 1013.5
20260502181203 68 288 3.5 7.8 0.00 0.00 0.00 69 1013.5
20260502180702 68 270 2.6 6.1 0.00 0.00 0.00 70 1013.5
20260502180203 68 276 3.5 7.8 0.00 0.00 0.00 70 1013.5
20260502170203 71 283 5.2 7.0 0.00 0.00 0.00 68 1013.7
20260502163703 72 294 4.3 8.7 0.00 0.00 0.00 66 1013.8
20260502162703 73 255 5.2 8.7 0.00 0.00 0.00 66 1013.9
20260502162203 73 288 3.5 10.4 0.00 0.00 0.00 66 1013.9
20260502161703 73 290 7.0 10.4 0.00 0.00 0.00 65 1014.0
20260502160703 74 299 4.3 10.4 0.00 0.00 0.00 64 1014.0
20260502160203 74 254 7.0 11.3 0.00 0.00 0.00 63 1014.1
20260502152203 73 265 4.3 11.3 0.00 0.00 0.00 64 1014.3
20260502151703 73 234 4.3 7.8 0.00 0.00 0.00 63 1014.4
20260502151204 73 289 2.6 7.8 0.00 0.00 0.00 63 1014.5
20260502150703 73 264 4.3 10.4 0.00 0.00 0.00 63 1014.5
20260502150203 74 260 6.1 10.4 0.00 0.00 0.00 61 1014.6
20260502130704 73 261 6.1 10.4 0.00 0.00 0.00 60 1015.5
20260502123704 73 249 7.0 11.3 0.00 0.00 0.00 57 1015.7
20260502123204 73 210 5.2 8.7 0.00 0.00 0.00 58 1015.7
20260502122703 72 250 7.0 13.0 0.00 0.00 0.00 58 1015.7
20260502122204 71 237 7.8 12.2 0.00 0.00 0.00 58 1015.7
20260502121704 73 240 6.1 10.4 0.00 0.00 0.00 57 1015.8
20260502121204 73 261 7.8 12.2 0.00 0.00 0.00 55 1015.8
20260502120705 73 259 6.1 10.4 0.00 0.00 0.00 53 1015.8
20260502120204 74 248 6.1 10.4 0.00 0.00 0.00 49 1015.7
20260502115704 74 237 5.2 10.4 0.00 0.00 0.00 48 1015.8
20260502115206 74 212 5.2 10.4 0.00 0.00 0.00 46 1015.7
20260502114704 74 230 5.2 12.2 0.00 0.00 0.00 45 1015.8
20260502114204 75 239 6.1 13.9 0.00 0.00 0.00 44 1015.7
20260502113704 74 240 4.3 8.7 0.00 0.00 0.00 45 1015.8
20260502113204 73 245 7.8 13.0 0.00 0.00 0.00 44 1015.9
20260502112704 73 255 7.0 13.9 0.00 0.00 0.00 43 1016.0
20260502111704 73 228 6.1 10.4 0.00 0.00 0.00 42 1016.1
20260502111205 73 237 3.5 7.0 0.00 0.00 0.00 44 1016.0
20260502110704 72 243 2.6 10.4 0.00 0.00 0.00 46 1016.0
20260502105702 70 229 4.3 7.8 0.00 0.00 0.00 48 1016.1
20260502105202 70 244 4.3 8.7 0.00 0.00 0.00 47 1016.1
20260502104703 70 215 4.3 8.7 0.00 0.00 0.00 48 1016.2
20260502104202 70 217 4.3 10.4 0.00 0.00 0.00 47 1016.2
20260502103202 71 249 4.3 11.3 0.00 0.00 0.00 44 1016.2
20260502102702 72 223 2.6 7.8 0.00 0.00 0.00 44 1016.2
20260502102203 72 229 4.3 10.4 0.00 0.00 0.00 45 1016.2
20260502101202 70 221 2.6 6.1 0.00 0.00 0.00 46 1016.3
20260502100703 70 197 4.3 7.8 0.00 0.00 0.00 46 1016.3
20260502100202 70 216 2.6 5.2 0.00 0.00 0.00 48 1016.3
20260502091202 71 218 5.2 10.4 0.00 0.00 0.00 48 1016.5
20260502090202 72 200 4.3 11.3 0.00 0.00 0.00 48 1016.5
20260502071203 62 164 1.7 8.7 0.00 0.00 0.00 57 1016.8
20260502070703 61 152 4.3 10.4 0.00 0.00 0.00 58 1016.8
20260502070203 61 159 2.6 10.4 0.00 0.00 0.00 59 1016.8
20260502065703 60 170 4.3 8.7 0.00 0.00 0.00 61 1016.8
20260502065203 60 159 3.5 7.8 0.00 0.00 0.00 61 1016.8
20260502064703 59 171 4.3 7.0 0.00 0.00 0.00 62 1016.9
20260502064203 59 173 2.6 7.8 0.00 0.00 0.00 63 1016.8
20260502063703 58 156 3.5 7.0 0.00 0.00 0.00 64 1016.8
20260502063203 58 149 4.3 7.8 0.00 0.00 0.00 64 1016.8
20260502062703 57 144 3.5 7.8 0.00 0.00 0.00 64 1016.8
20260502062203 57 141 2.6 7.8 0.00 0.00 0.00 65 1016.8
20260502061703 56 158 4.3 7.0 0.00 0.00 0.00 65 1016.8
20260502061203 56 151 3.5 7.0 0.00 0.00 0.00 66 1016.8
20260502055703 55 141 3.5 5.2 0.00 0.00 0.00 67 1016.8
20260502055203 55 133 2.6 6.1 0.00 0.00 0.00 67 1016.9
20260502054704 54 153 2.6 6.1 0.00 0.00 0.00 68 1016.9
20260502054204 54 141 3.5 7.0 0.00 0.00 0.00 68 1017.0
20260502053703 54 148 2.6 7.0 0.00 0.00 0.00 68 1017.0
20260502053204 53 144 2.6 7.0 0.00 0.00 0.00 68 1016.9
20260502052703 53 141 2.6 7.0 0.00 0.00 0.00 69 1016.9
20260502052203 53 156 1.7 7.8 0.00 0.00 0.00 69 1016.9
20260502051703 53 142 3.5 7.8 0.00 0.00 0.00 69 1016.9
20260502051204 52 139 4.3 7.8 0.00 0.00 0.00 69 1016.9
20260502050703 52 137 4.3 8.7 0.00 0.00 0.00 70 1017.0
20260502045703 52 138 2.6 6.1 0.00 0.00 0.00 71 1017.0
20260502045203 51 146 2.6 6.1 0.00 0.00 0.00 71 1017.0
20260502044704 51 136 2.6 7.0 0.00 0.00 0.00 71 1017.0
20260502044203 51 139 4.3 7.0 0.00 0.00 0.00 71 1016.9
20260502043703 51 141 2.6 6.1 0.00 0.00 0.00 71 1017.0
20260502043203 51 145 2.6 6.1 0.00 0.00 0.00 71 1017.0
20260502042703 51 141 2.6 7.0 0.00 0.00 0.00 71 1017.0
20260502042204 51 142 2.6 6.1 0.00 0.00 0.00 71 1017.0
20260502041704 51 145 4.3 7.0 0.00 0.00 0.00 70 1017.1
20260502041203 51 142 3.5 5.2 0.00 0.00 0.00 71 1017.1
20260502040703 51 140 2.6 5.2 0.00 0.00 0.00 71 1017.2
20260502040204 51 146 3.5 7.0 0.00 0.00 0.00 71 1017.2
20260502035703 51 159 2.6 7.0 0.00 0.00 0.00 71 1017.2
20260502035203 51 148 2.6 7.0 0.00 0.00 0.00 72 1017.3
20260502034703 51 146 2.6 6.1 0.00 0.00 0.00 72 1017.3
20260502034204 51 140 2.6 6.1 0.00 0.00 0.00 72 1017.3
20260502033704 51 154 3.5 7.8 0.00 0.00 0.00 72 1017.4
20260502032703 51 158 2.6 5.2 0.00 0.00 0.00 71 1017.5
20260502032204 51 157 1.7 4.3 0.00 0.00 0.00 71 1017.5
20260502031203 51 153 2.6 5.2 0.00 0.00 0.00 72 1017.5
20260502030704 51 154 2.6 7.0 0.00 0.00 0.00 72 1017.5
20260502030203 51 154 2.6 5.2 0.00 0.00 0.00 72 1017.5
20260502025703 51 160 2.6 5.2 0.00 0.00 0.00 73 1017.5
20260502025204 51 147 2.6 6.1 0.00 0.00 0.00 74 1017.6
20260502024704 51 141 2.6 5.2 0.00 0.00 0.00 74 1017.7
20260502024204 51 161 1.7 6.1 0.00 0.00 0.00 73 1017.7
20260502023704 51 159 2.6 5.2 0.00 0.00 0.00 73 1017.7
20260502023203 51 157 1.7 2.6 0.00 0.00 0.00 73 1017.8
20260502022703 51 164 0.9 4.3 0.00 0.00 0.00 73 1017.8
20260502022203 51 157 1.7 4.3 0.00 0.00 0.00 73 1017.9
20260502021704 51 149 2.6 4.3 0.00 0.00 0.00 74 1017.9
20260502021204 51 128 1.7 2.6 0.00 0.00 0.00 74 1017.9
20260502020703 51 125 2.6 2.6 0.00 0.00 0.00 75 1017.9
20260502020203 51 127 1.7 5.2 0.00 0.00 0.00 75 1018.0
20260502015703 51 137 1.7 2.6 0.00 0.00 0.00 74 1018.0
20260502014703 52 142 1.7 2.6 0.00 0.00 0.00 74 1018.1
20260502014204 52 131 1.7 2.6 0.00 0.00 0.00 73 1018.1
20260502013703 53 130 2.6 6.1 0.00 0.00 0.00 72 1018.1
20260502013203 53 135 1.7 6.1 0.00 0.00 0.00 72 1018.2
20260502012703 53 130 2.6 6.1 0.00 0.00 0.00 72 1018.2
20260502012204 53 136 2.6 2.6 0.00 0.00 0.00 72 1018.3
20260502011704 53 134 2.6 4.3 0.00 0.00 0.00 72 1018.4
20260502010704 53 125 4.3 6.1 0.00 0.00 0.00 73 1018.4
20260502010203 52 116 2.6 6.1 0.00 0.00 0.00 75 1018.6
20260502005703 52 128 2.6 6.1 0.00 0.00 0.00 76 1018.6
20260502005204 52 130 2.6 6.1 0.00 0.00 0.00 77 1018.6
20260502004203 52 128 1.7 2.6 0.00 0.00 0.00 76 1018.7
20260502003703 52 128 1.7 2.6 0.00 0.00 0.00 77 1018.7
20260502003204 52 124 1.7 2.6 0.00 0.00 0.00 76 1018.8
20260502002704 52 119 0.9 2.6 0.00 0.00 0.00 76 1018.9
20260502002203 52 118 0.9 2.6 0.00 0.00 0.00 76 1018.9
20260502001703 53 121 0.9 2.6 0.00 0.00 0.00 76 1019.0
20260502001204 53 126 1.7 2.6 0.00 0.00 0.00 76 1019.0
20260502000704 53 119 1.7 2.6 0.00 0.00 0.00 76 1019.0
20260501235704 53 125 0.9 2.6 0.00 0.00 0.00 76 1019.1
20260501235204 53 115 1.7 2.6 0.00 0.00 0.00 75 1019.2
20260501234704 53 121 0.9 2.6 0.00 0.00 0.00 75 1019.2
20260501234203 53 128 1.7 2.6 0.00 0.00 0.00 74 1019.2
20260501233703 53 130 0.9 2.6 0.00 0.00 0.00 74 1019.3
20260501233204 54 121 0.9 2.6 0.00 0.00 0.00 74 1019.3
20260501232704 54 120 0.9 2.6 0.00 0.00 0.00 73 1019.3
20260501232203 54 129 0.9 2.6 0.00 0.00 0.00 73 1019.3
20260501231704 54 129 1.7 2.6 0.00 0.00 0.00 73 1019.3
20260501231204 54 102 1.7 2.6 0.00 0.00 0.00 72 1019.4
20260501230704 54 128 1.7 2.6 0.00 0.00 0.00 73 1019.4
20260501230204 55 122 1.7 2.6 0.00 0.00 0.00 72 1019.4
20260501225704 55 108 0.9 2.6 0.00 0.00 0.00 72 1019.5
20260501225204 55 126 1.7 4.3 0.00 0.00 0.00 72 1019.5
20260501224704 55 123 1.7 2.6 0.00 0.00 0.00 71 1019.6
20260501224204 55 127 0.9 2.6 0.00 0.00 0.00 71 1019.6
20260501223704 55 118 1.7 2.6 0.00 0.00 0.00 71 1019.6
20260501223204 55 123 1.7 2.6 0.00 0.00 0.00 71 1019.6
20260501222705 56 122 1.7 2.6 0.00 0.00 0.00 70 1019.7
20260501221204 56 120 1.7 2.6 0.00 0.00 0.00 69 1019.7
20260501220704 57 121 0.9 2.6 0.00 0.00 0.00 69 1019.7
20260501215704 57 118 1.7 2.6 0.00 0.00 0.00 68 1019.8
20260501214704 57 123 0.9 2.6 0.00 0.00 0.00 67 1019.8